Weather History for Wilmington, OH

Change the Weather History Date:

Thursday, June 13, 2013

  Actual Average (KDAY) Record (KDAY)
Temperature  
Mean Temperature 72 °F 70 °F  
Max Temperature 80 °F 80 °F 95 °F (1902)
Min Temperature 64 °F 61 °F 42 °F (1903)
Degree Days  
Heating Degree Days 0 1  
Month to date heating degree days 19  
Since 1 June heating degree days 19  
Since 1 July heating degree days 5639  
Cooling Degree Days 7 6  
Month to date cooling degree days 62  
Year to date cooling degree days 132  
Since 1 June cooling degree days 62  
Growing Degree Days 22 (Base 50)    
Moisture  
Dew Point 64 °F    
Average Humidity 86    
Maximum Humidity 100    
Minimum Humidity 46    
Precipitation  
Precipitation 2.93 in 0.13 in 3.25 in (1958)
Month to date precipitation 1.83  
Year to date precipitation 18.87  
Snow  
Snow 0.00 in 0.00 in 0.00 in ()
Month to date snowfall 0.0  
Since 1 June snowfall 0.0  
Since 1 July snowfall 23.3  
Snow Depth -    
Sea Level Pressure  
Sea Level Pressure 29.71 in    
Wind  
Wind Speed 11 mph (NNW)    
Max Wind Speed 31 mph    
Max Gust Speed 39 mph    
Visibility 6 miles    
Events Fog , Rain , Thunderstorm    
T = Trace of Precipitation, MM = Missing Value Source: NWS Daily Summary

Daily Weather History Graph

Daily Weather History Graph

Search for Another Location

Airport:

Trip Planner

Search our weather history database for the weather conditions in past years. The results will help you decide how hot, cold, wet, or windy it might be!

Date:

Astronomy

Jun. 13, 2013 Rise Set
Actual Time 6:07 AM EDT 9:03 PM EDT
Civil Twilight 5:35 AM EDT 9:35 PM EDT
Nautical Twilight 4:54 AM EDT 10:16 PM EDT
Astronomical Twilight 4:07 AM EDT 11:03 PM EDT
Moon 10:42 AM EDT (6/13) No Moon Set
Length of Visible Light 16h 00m
Length of Day
14h 55m
Waxing Crescent, 21% of the Moon is Illuminated
Jun 13
Waxing Crescent
Jun 16
First Quarter
Jun 23
Full
Jun 30
Last Quarter
Jul 8
New

Hourly Weather History & Observations

Time (EDT) Temp. Heat Index Dew Point Humidity Pressure Visibility Wind Dir Wind Speed Gust Speed Precip Events Conditions
12:54 AM 80.1 °F 83.6 °F 71.1 °F 74% 29.68 in 10.0 mi SW 16.1 mph 26.5 mph N/A   Clear
1:54 AM 80.1 °F 83.6 °F 71.1 °F 74% 29.64 in 10.0 mi SSW 17.3 mph 27.6 mph N/A   Clear
2:30 AM 75.2 °F - 66.2 °F 73% 29.72 in 10.0 mi North 15.0 mph 27.6 mph N/A Thunderstorm Mostly Cloudy
2:36 AM 71.6 °F - 62.6 °F 73% 29.70 in 10.0 mi North 9.2 mph 27.6 mph N/A Thunderstorm Mostly Cloudy
2:54 AM 66.9 °F - 64.0 °F 90% 29.68 in 2.0 mi North 15.0 mph 21.9 mph 0.03 in Rain , Thunderstorm Heavy Thunderstorms and Rain
3:01 AM 66.2 °F - 64.4 °F 94% 29.70 in 1.0 mi North 16.1 mph 21.9 mph 0.29 in Rain , Thunderstorm Heavy Thunderstorms and Rain
3:31 AM 64.4 °F - 64.4 °F 100% 29.71 in 3.0 mi Calm Calm - 0.91 in Rain , Thunderstorm Thunderstorms and Rain
3:52 AM 64.4 °F - 64.4 °F 100% 29.69 in 2.5 mi Variable 3.5 mph - 0.99 in Rain , Thunderstorm Heavy Thunderstorms and Rain
3:54 AM 64.9 °F - 64.0 °F 97% 29.66 in 2.0 mi NNE 3.5 mph - 1.05 in Rain , Thunderstorm Heavy Thunderstorms and Rain
3:58 AM 64.4 °F - 64.4 °F 100% 29.70 in 1.8 mi Calm Calm - 0.04 in Rain , Thunderstorm Light Thunderstorms and Rain
4:01 AM 64.4 °F - 64.4 °F 100% 29.69 in 2.0 mi Calm Calm - 0.05 in Rain , Thunderstorm Heavy Thunderstorms and Rain
4:08 AM 64.4 °F - 64.4 °F 100% 29.70 in 2.5 mi North 4.6 mph - 0.15 in Rain , Thunderstorm Light Rain
4:12 AM 64.4 °F - 64.4 °F 100% 29.69 in 7.0 mi East 4.6 mph - 0.16 in Rain Light Rain
4:29 AM 64.4 °F - 64.4 °F 100% 29.69 in 6.0 mi NE 4.6 mph - 0.16 in Rain , Thunderstorm Light Thunderstorms and Rain
4:48 AM 64.4 °F - 64.4 °F 100% 29.68 in 1.2 mi Calm Calm - 0.21 in Rain , Thunderstorm Heavy Thunderstorms and Rain
4:54 AM 66.0 °F - 64.9 °F 96% 29.67 in 0.5 mi NNW 8.1 mph - 0.57 in Fog , Rain , Thunderstorm Heavy Thunderstorms and Rain
5:00 AM 66.2 °F - 64.4 °F 94% 29.68 in 1.0 mi North 4.6 mph - 0.25 in Rain , Thunderstorm Heavy Thunderstorms and Rain
5:05 AM 66.2 °F - 64.4 °F 94% 29.68 in 2.0 mi Calm Calm - 0.27 in Rain , Thunderstorm Thunderstorms and Rain
5:13 AM 66.2 °F - 64.4 °F 94% 29.66 in 1.2 mi South 8.1 mph - 0.38 in Rain Heavy Rain
5:22 AM 66.2 °F - 64.4 °F 94% 29.65 in 6.0 mi South 5.8 mph - 0.44 in Rain Light Rain
5:54 AM 66.9 °F - 64.9 °F 93% 29.62 in 10.0 mi SSW 6.9 mph - 0.44 in   Scattered Clouds
6:34 AM 66.2 °F - 64.4 °F 94% 29.64 in 9.0 mi SSW 8.1 mph - 0.00 in Rain , Thunderstorm Light Rain
6:54 AM 66.9 °F - 64.9 °F 93% 29.61 in 10.0 mi SW 9.2 mph - 0.03 in Rain , Thunderstorm Light Thunderstorms and Rain
7:07 AM 68.0 °F - 66.2 °F 94% 29.65 in 10.0 mi WSW 11.5 mph - N/A   Partly Cloudy
7:54 AM 70.0 °F - 66.9 °F 90% 29.61 in 10.0 mi WSW 11.5 mph - N/A   Scattered Clouds
8:42 AM 71.6 °F - 66.2 °F 83% 29.63 in 10.0 mi NW 3.5 mph - N/A Thunderstorm Mostly Cloudy
8:52 AM 71.6 °F - 68.0 °F 88% 29.66 in 9.0 mi NNW 15.0 mph 20.7 mph 0.00 in Rain , Thunderstorm Light Thunderstorms and Rain
8:54 AM 71.1 °F - 68.0 °F 90% 29.63 in 4.0 mi NNW 23.0 mph 27.6 mph 0.00 in Rain , Thunderstorm Light Thunderstorms and Rain
8:58 AM 69.8 °F - 66.2 °F 88% 29.66 in 1.2 mi NNW 31.1 mph 39.1 mph 0.09 in Rain , Thunderstorm Heavy Thunderstorms and Rain
9:06 AM 66.2 °F - 66.2 °F 100% 29.69 in 0.8 mi NNW 18.4 mph 39.1 mph 0.37 in Rain , Thunderstorm Heavy Thunderstorms and Rain
9:09 AM 66.2 °F - 66.2 °F 100% 29.67 in 1.0 mi North 20.7 mph 31.1 mph 0.44 in Rain , Thunderstorm Heavy Thunderstorms and Rain
9:21 AM 66.2 °F - 66.2 °F 100% 29.67 in 2.5 mi North 16.1 mph 24.2 mph 0.60 in Rain , Thunderstorm Light Thunderstorms and Rain
9:28 AM 66.2 °F - 66.2 °F 100% 29.69 in 4.0 mi WNW 8.1 mph 21.9 mph 0.61 in Rain , Thunderstorm Rain
9:30 AM 66.2 °F - 66.2 °F 100% 29.69 in 1.2 mi WNW 8.1 mph 21.9 mph 0.62 in Rain , Thunderstorm Heavy Rain
9:40 AM 66.2 °F - 66.2 °F 100% 29.68 in 2.0 mi North 6.9 mph - 0.66 in Rain , Thunderstorm Rain
9:49 AM 66.2 °F - 66.2 °F 100% 29.71 in 3.0 mi WNW 8.1 mph - 0.68 in Rain Rain
9:54 AM 66.9 °F - 66.0 °F 97% 29.69 in 3.0 mi WNW 6.9 mph - 0.69 in Rain Rain
10:05 AM 66.2 °F - 66.2 °F 100% 29.72 in 5.0 mi WNW 8.1 mph - 0.02 in Rain Light Rain
10:54 AM 66.9 °F - 64.9 °F 93% 29.68 in 10.0 mi NNW 15.0 mph - 0.11 in Rain Light Rain
11:25 AM 66.2 °F - 64.4 °F 94% 29.72 in 10.0 mi NNW 11.5 mph - 0.01 in Rain Light Rain
11:32 AM 68.0 °F - 66.2 °F 94% 29.73 in 10.0 mi NNW 12.7 mph - 0.01 in Rain Light Rain
11:54 AM 66.9 °F - 64.9 °F 93% 29.70 in 10.0 mi NNW 13.8 mph - 0.01 in   Overcast
12:03 PM 66.2 °F - 64.4 °F 94% 29.75 in 10.0 mi NNW 10.4 mph 21.9 mph N/A   Overcast
12:26 PM 66.2 °F - 64.4 °F 94% 29.75 in 8.0 mi NNW 18.4 mph 24.2 mph 0.00 in Rain Light Rain
12:36 PM 68.0 °F - 64.4 °F 88% 29.76 in 9.0 mi North 17.3 mph 21.9 mph 0.00 in   Overcast
12:54 PM 70.0 °F - 64.0 °F 81% 29.74 in 9.0 mi North 16.1 mph 23.0 mph 0.00 in   Overcast
1:36 PM 68.0 °F - 62.6 °F 83% 29.79 in 10.0 mi North 9.2 mph 16.1 mph 0.00 in   Overcast
1:54 PM 71.1 °F - 62.1 °F 73% 29.76 in 10.0 mi North 13.8 mph - 0.00 in   Overcast
2:54 PM 73.0 °F - 60.1 °F 64% 29.79 in 10.0 mi NNW 13.8 mph 21.9 mph N/A   Partly Cloudy
3:54 PM 73.9 °F - 57.0 °F 55% 29.81 in 10.0 mi NNW 17.3 mph 24.2 mph N/A   Partly Cloudy
4:54 PM 75.9 °F - 57.0 °F 52% 29.82 in 10.0 mi NNW 12.7 mph - N/A   Scattered Clouds
5:54 PM 75.9 °F - 55.9 °F 50% 29.81 in 10.0 mi NNW 10.4 mph - N/A   Partly Cloudy
6:54 PM 75.0 °F - 55.0 °F 50% 29.82 in 10.0 mi NNW 13.8 mph 23.0 mph N/A   Scattered Clouds
7:54 PM 73.9 °F - 52.0 °F 46% 29.83 in 10.0 mi NNW 10.4 mph - N/A   Clear
8:54 PM 71.1 °F - 54.0 °F 55% 29.85 in 10.0 mi NNW 6.9 mph - N/A   Clear
9:54 PM 68.0 °F - 54.0 °F 61% 29.87 in 10.0 mi NNW 5.8 mph - N/A   Clear
10:54 PM 68.0 °F - 53.1 °F 59% 29.90 in 10.0 mi WNW 10.4 mph - N/A   Clear
11:54 PM 66.0 °F - 55.9 °F 70% 29.91 in 10.0 mi WNW 9.2 mph - N/A   Clear